Avoca, PA

10:03 PM EDT on June 28, 2017 (GMT -0400)
Wilkes-Barre-Scranton International

Weather History for KAVP - October, 2012

Change the Weather History Date:

Tuesday, October 30, 2012

  Actual Average Record
Temperature  
Mean Temperature 46 °F 47 °F  
Max Temperature 52 °F 56 °F 78 °F (1946)
Min Temperature 40 °F 37 °F 25 °F (1969)
Degree Days  
Heating Degree Days 19 18  
Month to date heating degree days 318 421  
Since 1 July heating degree days 435 583  
Cooling Degree Days 0 0  
Month to date cooling degree days 3 0  
Year to date cooling degree days 864 576  
Moisture  
Dew Point 40 °F    
Average Humidity 82    
Maximum Humidity 89    
Minimum Humidity 74    
Precipitation  
Precipitation 0.59 in 0.09 in 2.12 in (1917)
Month to date precipitation 5.72 3.24  
Year to date precipitation 33.07 32.34  
Sea Level Pressure  
Sea Level Pressure 29.21 in    
Wind  
Wind Speed 7 mph (SE)    
Max Wind Speed 25 mph    
Max Gust Speed 43 mph    
Visibility 8 miles    
Events Rain    
T = Trace of Precipitation, MM = Missing Value Source: NWS Daily Summary

Daily Weather History Graph

Daily Weather History Graph

Search for Another Location

Airport or City:

Trip Planner

Search our weather history database for the weather conditions in past years. The results will help you decide how hot, cold, wet, or windy it might be!

Date:

Astronomy

Oct. 30, 2012 Rise Set
Actual Time 7:32 AM EDT 5:59 PM EDT
Civil Twilight 7:03 AM EDT 6:28 PM EDT
Nautical Twilight 6:31 AM EDT 7:01 PM EDT
Astronomical Twilight 5:59 AM EDT 7:33 PM EDT
Moon 6:27 PM EDT (10/30) 8:17 AM EDT (10/30)
Length of Visible Light 11h 24m
Length of Day
10h 27m
Full, 99% of the Moon is Illuminated
Oct 30
Full
Nov 6
Last Quarter
Nov 13
New
Nov 20
First Quarter
Nov 28
Full

Hourly Weather History & Observations

Time (EDT) Temp. Windchill Dew Point Humidity Pressure Visibility Wind Dir Wind Speed Gust Speed Precip Events Conditions
12:01 AM 55.4 °F - 46.4 °F 72% 28.77 in 9.0 mi East 13.8 mph 32.2 mph 0.00 in Rain Light Rain
12:24 AM 51.8 °F - 46.4 °F 82% 28.79 in 4.0 mi East 12.7 mph 41.4 mph 0.00 in Rain Light Rain
12:54 AM 52.0 °F - 45.0 °F 77% 28.81 in 6.0 mi East 11.5 mph 39.1 mph 0.02 in Rain Light Rain
1:54 AM 51.1 °F - 45.0 °F 80% 28.87 in 7.0 mi East 9.2 mph 25.3 mph 0.03 in Rain Light Rain
2:19 AM 50.0 °F - 44.6 °F 82% 28.90 in 9.0 mi East 12.7 mph 29.9 mph 0.00 in Rain Light Rain
2:34 AM 50.0 °F - 42.8 °F 76% 28.92 in 8.0 mi ESE 12.7 mph 28.8 mph 0.01 in Rain Light Rain
2:54 AM 50.0 °F - 44.1 °F 80% 28.93 in 6.0 mi ESE 9.2 mph 21.9 mph 0.03 in Rain Light Rain
3:54 AM 50.0 °F - 42.1 °F 74% 28.96 in 8.0 mi ESE 12.7 mph 39.1 mph 0.06 in Rain Light Rain
4:54 AM 48.0 °F - 43.0 °F 83% 29.00 in 8.0 mi ESE 8.1 mph 16.1 mph 0.06 in Rain Light Rain
5:54 AM 46.9 °F - 41.0 °F 80% 29.04 in 6.0 mi SE 15.0 mph 33.4 mph 0.05 in Rain Light Rain
6:54 AM 46.9 °F - 41.0 °F 80% 29.09 in 6.0 mi SE 15.0 mph 31.1 mph 0.08 in Rain Light Rain
7:54 AM 46.9 °F - 41.0 °F 80% 29.13 in 7.0 mi SE 10.4 mph 27.6 mph 0.05 in Rain Light Rain
8:54 AM 46.9 °F - 41.0 °F 80% 29.16 in 6.0 mi SE 8.1 mph - 0.04 in Rain Light Rain
9:54 AM 46.0 °F 40.6 °F 39.9 °F 79% 29.21 in 5.0 mi SE 11.5 mph 21.9 mph 0.03 in Rain Light Rain
10:19 AM 46.4 °F 42.4 °F 39.2 °F 76% 29.22 in 6.0 mi SE 8.1 mph 19.6 mph 0.02 in Rain Light Rain
10:54 AM 46.0 °F 41.9 °F 39.0 °F 76% 29.24 in 7.0 mi ESE 8.1 mph 20.7 mph 0.04 in Rain Light Rain
11:54 AM 46.0 °F 38.8 °F 39.0 °F 76% 29.26 in 6.0 mi SE 18.4 mph 31.1 mph 0.02 in Rain Light Rain
12:42 PM 46.4 °F 44.3 °F 39.2 °F 76% 29.28 in 6.0 mi SE 4.6 mph - 0.01 in Rain Light Rain
12:54 PM 46.0 °F 41.9 °F 39.9 °F 79% 29.28 in 6.0 mi SE 8.1 mph - 0.02 in Rain Light Rain
1:54 PM 46.9 °F - 39.0 °F 74% 29.29 in 10.0 mi SSE 11.5 mph 21.9 mph 0.01 in   Overcast
2:54 PM 45.0 °F 41.8 °F 39.9 °F 82% 29.31 in 5.0 mi SSE 5.8 mph - 0.00 in Rain Light Rain
3:11 PM 44.6 °F 39.2 °F 37.4 °F 76% 29.32 in 7.0 mi SSE 10.4 mph 20.7 mph 0.00 in Rain Light Rain
3:38 PM 44.6 °F - 39.2 °F 81% 29.33 in 5.0 mi Calm Calm - 0.01 in Rain Light Rain
3:54 PM 45.0 °F 40.6 °F 39.0 °F 80% 29.33 in 7.0 mi SSE 8.1 mph - 0.01 in Rain Light Rain
4:54 PM 44.1 °F 41.5 °F 39.0 °F 82% 29.35 in 7.0 mi Variable 4.6 mph - 0.01 in Rain Light Rain
5:07 PM 44.6 °F 41.4 °F 37.4 °F 76% 29.35 in 9.0 mi Variable 5.8 mph - 0.00 in Rain Light Rain
5:26 PM 44.6 °F 40.7 °F 37.4 °F 76% 29.36 in 10.0 mi South 6.9 mph - 0.00 in Rain Light Rain
5:54 PM 43.0 °F - 39.0 °F 86% 29.38 in 7.0 mi Calm Calm - 0.01 in Rain Light Rain
6:35 PM 42.8 °F 39.3 °F 37.4 °F 81% 29.39 in 9.0 mi SE 5.8 mph - 0.01 in Rain Light Rain
6:54 PM 42.1 °F 40.2 °F 37.9 °F 85% 29.40 in 8.0 mi Variable 3.5 mph - 0.02 in Rain Light Rain
7:32 PM 42.8 °F 41.1 °F 37.4 °F 81% 29.41 in 8.0 mi SSE 3.5 mph - 0.00 in Rain Light Rain
7:54 PM 42.1 °F - 37.9 °F 85% 29.42 in 9.0 mi Calm Calm - 0.01 in Rain Light Rain
8:54 PM 41.0 °F 36.4 °F 36.0 °F 82% 29.43 in 10.0 mi South 6.9 mph - 0.01 in Rain Light Rain
9:54 PM 39.9 °F - 36.0 °F 86% 29.44 in 9.0 mi Calm Calm - 0.00 in   Overcast
10:20 PM 39.2 °F - 37.4 °F 93% 29.43 in 10.0 mi Calm Calm - N/A   Overcast
10:54 PM 41.0 °F - 37.0 °F 86% 29.43 in 10.0 mi Calm Calm - N/A   Overcast
11:51 PM 39.2 °F - 35.6 °F 87% 29.43 in 10.0 mi Calm Calm - N/A   Overcast
11:54 PM 39.9 °F - 36.0 °F 86% 29.43 in 10.0 mi Calm Calm - N/A   Overcast